This is the latest recevied weather packets stored in our database for station/object DL6DBZ-10. If no packets are shown the sender has not sent any weather packets the latest 10 day(s).
| Time | Temp. | Humidity | Pressure | Rain* | Wind** | Luminosity | Snow |
|---|---|---|---|---|---|---|---|
| 1787675244 | 22.22° C | 43% | 1019.9 hPa | - | - | - | - |
| 1787674644 | 22.22° C | 42% | 1019.9 hPa | - | - | - | - |
| 1787674043 | 22.22° C | 42% | 1019.9 hPa | - | - | - | - |
| 1787673443 | 22.22° C | 43% | 1019.9 hPa | - | - | - | - |
| 1787672843 | 22.78° C | 42% | 1019.9 hPa | - | - | - | - |
| 1787672242 | 22.78° C | 42% | 1020 hPa | - | - | - | - |
| 1787671642 | 22.78° C | 41% | 1019.9 hPa | - | - | - | - |
| 1787671042 | 22.78° C | 41% | 1020 hPa | - | - | - | - |
| 1787670442 | 23.33° C | 42% | 1020 hPa | - | - | - | - |
| 1787669841 | 22.78° C | 41% | 1019.8 hPa | - | - | - | - |
| 1787669249 | 23.33° C | 41% | 1019.8 hPa | - | - | - | - |
| 1787668648 | 23.33° C | 41% | 1019.8 hPa | - | - | - | - |
| 1787668048 | 23.33° C | 40% | 1019.8 hPa | - | - | - | - |
| 1787667448 | 23.33° C | 41% | 1019.7 hPa | - | - | - | - |
| 1787666847 | 23.33° C | 41% | 1019.6 hPa | - | - | - | - |
| 1787666247 | 23.33° C | 42% | 1019.6 hPa | - | - | - | - |
| 1787665647 | 23.89° C | 42% | 1019.7 hPa | - | - | - | - |
| 1787665047 | 22.78° C | 44% | 1019.8 hPa | - | - | - | - |
| 1787664447 | 22.78° C | 43% | 1019.6 hPa | - | - | - | - |
| 1787663846 | 22.78° C | 43% | 1019.6 hPa | - | - | - | - |
| 1787663246 | 22.78° C | 44% | 1019.6 hPa | - | - | - | - |
| 1787662646 | 22.22° C | 44% | 1019.7 hPa | - | - | - | - |
| 1787662046 | 22.78° C | 43% | 1019.7 hPa | - | - | - | - |
| 1787661445 | 22.78° C | 44% | 1019.8 hPa | - | - | - | - |
| 1787660845 | 22.78° C | 43% | 1019.8 hPa | - | - | - | - |
* Rain since midnight (hover to see other rain measurements)
** Current wind speed in m/s (hover to see current wind gust speed)